Home > Weather > Albuquerque > Past weeks

Flag for USA Weather for the Past 2 Weeks in Albuquerque, New Mexico, USA

Now
47 °F

Mostly cloudy.


Feels Like: 36 °F
Forecast: 40 / 50 °F
Wind: 40 mph from East

Location: Albuquerque International Airport

Current Time: May 1, 2016 at 12:50:30 AM

Latest Report: Apr 30, 2016 at 11:52 PM


Visibility: 10 mi

Pressure: 29.76 "Hg (24.77 "Hg at 1510m altitude)

Humidity: 64%

Dew Point: 35 °F

Location of AlbuquerqueLocation

Historic Weather in Albuquerque — Graph

°F

Albuquerque Temperature Yesterday

Maximum temperature yesterday: 63 °F (at 3:52 PM)
Minimum temperature yesterday: 43 °F (at 4:52 AM)
Average temperature yesterday: 52 °F

High & Low Weather Summary for the Past Weeks

 TemperatureHumidityPressure
High83 °F (Apr 25, 2:52 PM)97% (Apr 19, 1:52 AM)30.23 "Hg (Apr 19, 1:52 AM)
Low34 °F (Apr 19, 6:52 AM)8% (Apr 25, 3:52 PM)29.42 "Hg (Apr 25, 4:52 PM)
Average56 °F42%29.83 "Hg
* Reported Apr 15 11:52 PM — Apr 30 10:52 PM, Albuquerque, Weather by CustomWeather, © 2016

Note: Actual official high and low records may vary slightly from our data, if they occured in-between our weather recording intervals... More about our weather records

Advertising

Albuquerque Weather History for the Previous 24 Hours

Scroll right to see more
 ConditionsComfort  
Time TempWeatherWind HumidityBarometerVisibility
10:52 PM
Sat, Apr 30
52 °FOvercast.23 mph61%29.77 "Hg10 mi
9:52 PM51 °FMostly cloudy.7 mph74%29.78 "Hg10 mi
8:52 PM51 °FMostly cloudy.13 mph77%29.78 "Hg10 mi
7:52 PM51 °FOvercast.8 mph77%29.79 "Hg10 mi
6:52 PM51 °FLight rain. Mostly cloudy.22 mph77%29.78 "Hg10 mi
5:52 PM62 °FBroken clouds.8 mph29%29.68 "Hg10 mi
4:52 PM63 °FBroken clouds.6 mph29%29.67 "Hg10 mi
3:52 PM63 °FBroken clouds.N/A31%29.68 "Hg10 mi
2:52 PM62 °FBroken clouds.14 mph35%29.70 "Hg10 mi
1:52 PM61 °FBroken clouds.9 mph34%29.70 "Hg10 mi
12:52 PM58 °FPartly sunny.13 mph41%29.73 "Hg10 mi
11:52 AM60 °FPartly sunny.8 mph35%29.73 "Hg10 mi
10:52 AM56 °FPartly sunny.5 mph47%29.76 "Hg10 mi
9:52 AM52 °FScattered clouds.10 mph57%29.79 "Hg10 mi
8:52 AM49 °FScattered clouds.9 mph64%29.79 "Hg10 mi
7:52 AM46 °FScattered clouds.5 mph71%29.79 "Hg10 mi
6:52 AM43 °FPartly cloudy.7 mph76%29.77 "Hg10 mi
5:52 AM44 °FPartly cloudy.3 mph73%29.76 "Hg10 mi
4:52 AM43 °FPassing clouds.6 mph76%29.78 "Hg10 mi
3:52 AM45 °FPassing clouds.6 mph74%29.76 "Hg10 mi
2:52 AM46 °FPassing clouds.7 mph68%29.77 "Hg10 mi
1:52 AM47 °FMostly cloudy.10 mph64%29.78 "Hg10 mi
12:52 AM47 °FMostly cloudy.9 mph66%29.78 "Hg10 mi
Weather by CustomWeather, © 2016

See weather overviewHow to use our weather pages